Russellville, AR

2:45 PM CDT on May 23, 2018 (GMT -0500)
Russellville Regional

Weather History for KRUE - September, 2013

Change the Weather History Date:

Monday, September 16, 2013

  Actual Average (KHOT) Record (KHOT)
Temperature  
Mean Temperature 78 °F -  
Max Temperature 93 °F 85 °F 101 °F (1980)
Min Temperature 64 °F 62 °F 47 °F (1993)
Cooling Degree Days 12    
Growing Degree Days 28 (Base 50)    
Moisture  
Dew Point 60 °F    
Average Humidity 55    
Maximum Humidity 81    
Minimum Humidity 35    
Precipitation  
Precipitation 0.00 in - - ()
Sea Level Pressure  
Sea Level Pressure 30.09 in    
Wind  
Wind Speed 2 mph (ENE)    
Max Wind Speed 10 mph    
Max Gust Speed -    
Visibility 10 miles    
Events      
Averages and records for this station are not official NWS values.
T = Trace of Precipitation, MM = Missing Value Source: NWS Daily Summary

Daily Weather History Graph

Daily Weather History Graph

Search for Another Location

Airport or City:

Astronomy

Sep. 16, 2013 Rise Set
Actual Time 6:56 AM CDT 7:17 PM CDT
Civil Twilight 6:30 AM CDT 7:42 PM CDT
Nautical Twilight 6:00 AM CDT 8:12 PM CDT
Astronomical Twilight 5:30 AM CDT 8:42 PM CDT
Moon 5:22 PM CDT (9/16) 3:48 AM CDT (9/16)
Length of Visible Light 13h 12m
Length of Day
12h 21m
Waxing Gibbous, 90% of the Moon is Illuminated
Sep 16
Waxing Gibbous
Sep 19
Full
Sep 26
Last Quarter
Oct 4
New
Oct 11
First Quarter

Hourly Weather History & Observations

Time (CDT) Temp. Heat Index Dew Point Humidity Pressure Visibility Wind Dir Wind Speed Gust Speed Precip Events Conditions
12:53 AM 71.1 °F - 57.9 °F 63% 30.05 in 10.0 mi Calm Calm - N/A   Clear
1:53 AM 69.1 °F - 59.0 °F 70% 30.06 in 10.0 mi Calm Calm - N/A   Clear
2:53 AM 66.9 °F - 57.9 °F 73% 30.06 in 10.0 mi Calm Calm - N/A   Clear
3:53 AM 66.9 °F - 57.9 °F 73% 30.05 in 10.0 mi Calm Calm - N/A   Clear
4:53 AM 66.0 °F - 57.9 °F 75% 30.05 in 10.0 mi Calm Calm - N/A   Clear
5:53 AM 64.9 °F - 57.9 °F 78% 30.07 in 10.0 mi Calm Calm - N/A   Clear
6:53 AM 64.0 °F - 57.9 °F 80% 30.09 in 10.0 mi Calm Calm - N/A   Clear
7:53 AM 64.9 °F - 59.0 °F 81% 30.11 in 10.0 mi Calm Calm - N/A   Clear
8:53 AM 73.0 °F - 57.0 °F 57% 30.13 in 10.0 mi Calm Calm - N/A   Clear
9:53 AM 78.1 °F - 57.0 °F 48% 30.15 in 10.0 mi Calm Calm - N/A   Overcast
10:53 AM 84.0 °F 83.5 °F 57.9 °F 41% 30.14 in 10.0 mi Variable 3.5 mph - N/A   Overcast
11:53 AM 89.1 °F 89.3 °F 62.1 °F 40% 30.14 in 10.0 mi North 10.4 mph - N/A   Overcast
12:53 PM 90.0 °F 90.3 °F 62.1 °F 39% 30.13 in 10.0 mi Variable 4.6 mph - N/A   Clear
1:53 PM 91.0 °F 90.9 °F 61.0 °F 36% 30.10 in 10.0 mi Variable 4.6 mph - N/A   Scattered Clouds
2:53 PM 91.9 °F 92.5 °F 62.1 °F 37% 30.07 in 10.0 mi Variable 4.6 mph - N/A   Overcast
3:53 PM 91.0 °F 91.5 °F 62.1 °F 38% 30.05 in 10.0 mi East 4.6 mph - N/A   Mostly Cloudy
4:53 PM 91.9 °F 91.8 °F 61.0 °F 35% 30.03 in 10.0 mi ENE 6.9 mph - N/A   Partly Cloudy
5:53 PM 90.0 °F 89.7 °F 60.1 °F 37% 30.04 in 10.0 mi Variable 4.6 mph - N/A   Clear
6:53 PM 88.0 °F 87.6 °F 60.1 °F 39% 30.04 in 10.0 mi East 5.8 mph - N/A   Clear
7:53 PM 84.0 °F 83.3 °F 57.0 °F 40% 30.06 in 10.0 mi East 8.1 mph - N/A   Clear
8:53 PM 81.0 °F 81.0 °F 57.0 °F 44% 30.09 in 10.0 mi ENE 6.9 mph - N/A   Clear
9:53 PM 78.1 °F - 57.9 °F 50% 30.10 in 10.0 mi Calm Calm - N/A   Clear
10:53 PM 77.0 °F - 64.0 °F 64% 30.11 in 9.0 mi East 5.8 mph - N/A   Clear
11:53 PM 75.0 °F - 66.0 °F 73% 30.12 in 9.0 mi ENE 5.8 mph - N/A   Clear